When you browse on this site, cookies collect data to enhance your experience and personalize the content and advertising you see.
Visit our Privacy Policy to learn more. By continuing to use the site, you agree to this use of cookies and data.
EN

Hourly Weather Dalvarzin

Today, 6 August, Thursday

Time Temperature Precipitation Wind Pressure Humidity
00:00 +30°C° 0 mm 2 mps 730 mmHg 23%
01:00 +28°C° 0 mm 2 mps 730 mmHg 24%
02:00 +27°C° 0 mm 1 mps 730 mmHg 26%
03:00 +27°C° 0 mm 2 mps 730 mmHg 28%
04:00 +26°C° 0 mm 2 mps 730 mmHg 31%
05:00 +25°C° 0 mm 2 mps 730 mmHg 33%
06:00 +27°C° 0 mm 2 mps 731 mmHg 32%
07:00 +29°C° 0 mm 3 mps 731 mmHg 30%
08:00 +30°C° 0 mm 3 mps 732 mmHg 28%
09:00 +33°C° 0 mm 3 mps 732 mmHg 26%
10:00 +35°C° 0 mm 3 mps 732 mmHg 24%
11:00 +36°C° 0 mm 3 mps 732 mmHg 21%
12:00 +38°C° 0 mm 3 mps 731 mmHg 19%
13:00 +39°C° 0 mm 3 mps 731 mmHg 17%
14:00 +42°C° 0 mm 3 mps 731 mmHg 15%
15:00 +42°C° 0 mm 3 mps 731 mmHg 14%
16:00 +42°C° 0 mm 2 mps 731 mmHg 14%
17:00 +42°C° 0 mm 2 mps 731 mmHg 13%
18:00 +40°C° 0 mm 2 mps 731 mmHg 15%
19:00 +37°C° 0 mm 2 mps 731 mmHg 18%
20:00 +35°C° 0 mm 3 mps 731 mmHg 20%
21:00 +32°C° 0 mm 2 mps 731 mmHg 22%
22:00 +31°C° 0 mm 2 mps 731 mmHg 24%
23:00 +30°C° 0 mm 2 mps 731 mmHg 25%

Tomorrow, 7 August, Friday

Time Temperature Precipitation Wind Pressure Humidity
00:00 +29°C° 0 mm 2 mps 730 mmHg 27%
01:00 +28°C° 0 mm 2 mps 730 mmHg 28%
02:00 +27°C° 0 mm 2 mps 730 mmHg 29%
03:00 +26°C° 0 mm 2 mps 730 mmHg 30%
04:00 +25°C° 0 mm 2 mps 730 mmHg 31%
05:00 +24°C° 0 mm 2 mps 730 mmHg 32%
06:00 +26°C° 0 mm 2 mps 731 mmHg 28%
07:00 +28°C° 0 mm 2 mps 731 mmHg 24%
08:00 +30°C° 0 mm 2 mps 731 mmHg 20%
09:00 +32°C° 0 mm 2 mps 731 mmHg 18%
10:00 +36°C° 0 mm 2 mps 731 mmHg 15%
11:00 +38°C° 0 mm 2 mps 731 mmHg 13%
12:00 +39°C° 0 mm 3 mps 731 mmHg 12%
13:00 +42°C° 0 mm 3 mps 731 mmHg 12%
14:00 +43°C° 0 mm 3 mps 731 mmHg 11%
15:00 +44°C° 0 mm 4 mps 731 mmHg 11%
16:00 +44°C° 0 mm 4 mps 730 mmHg 11%
17:00 +44°C° 0 mm 4 mps 730 mmHg 11%
18:00 +42°C° 0 mm 4 mps 730 mmHg 13%
19:00 +38°C° 0 mm 4 mps 730 mmHg 16%
20:00 +35°C° 0 mm 3 mps 730 mmHg 18%
21:00 +34°C° 0 mm 3 mps 730 mmHg 19%
22:00 +33°C° 0 mm 3 mps 730 mmHg 21%
23:00 +31°C° 0 mm 2 mps 730 mmHg 22%

Day after tomorrow, 8 August, Saturday

Time Temperature Precipitation Wind Pressure Humidity
00:00 +30°C° 0 mm 2 mps 730 mmHg 24%
01:00 +28°C° 0 mm 2 mps 729 mmHg 26%
02:00 +27°C° 0 mm 2 mps 729 mmHg 28%
03:00 +27°C° 0 mm 2 mps 729 mmHg 30%
04:00 +26°C° 0 mm 2 mps 729 mmHg 31%
05:00 +25°C° 0 mm 2 mps 729 mmHg 32%
06:00 +27°C° 0 mm 2 mps 729 mmHg 29%
07:00 +29°C° 0 mm 2 mps 730 mmHg 26%
08:00 +31°C° 0 mm 2 mps 730 mmHg 23%
09:00 +34°C° 0 mm 2 mps 730 mmHg 21%
10:00 +36°C° 0 mm 3 mps 730 mmHg 18%
11:00 +38°C° 0 mm 3 mps 729 mmHg 16%
12:00 +40°C° 0 mm 3 mps 729 mmHg 14%
13:00 +42°C° 0 mm 3 mps 729 mmHg 13%
14:00 +43°C° 0 mm 3 mps 729 mmHg 12%
15:00 +43°C° 0 mm 4 mps 729 mmHg 12%
16:00 +43°C° 0 mm 5 mps 728 mmHg 12%
17:00 +44°C° 0 mm 6 mps 728 mmHg 12%
18:00 +41°C° 0 mm 5 mps 728 mmHg 15%
19:00 +37°C° 0 mm 5 mps 728 mmHg 18%
20:00 +35°C° 0 mm 5 mps 729 mmHg 21%
21:00 +33°C° 0 mm 4 mps 729 mmHg 23%
22:00 +31°C° 0 mm 3 mps 728 mmHg 26%
23:00 +30°C° 0 mm 2 mps 728 mmHg 28%

9 August, Sunday

Time Temperature Precipitation Wind Pressure Humidity
00:00 +29°C° 0 mm 2 mps 728 mmHg 30%
01:00 +28°C° 0 mm 2 mps 728 mmHg 32%
02:00 +27°C° 0 mm 2 mps 728 mmHg 33%
03:00 +26°C° 0 mm 2 mps 728 mmHg 34%
04:00 +25°C° 0 mm 2 mps 728 mmHg 35%
05:00 +25°C° 0 mm 2 mps 728 mmHg 35%
06:00 +27°C° 0 mm 2 mps 729 mmHg 32%
07:00 +28°C° 0 mm 2 mps 729 mmHg 28%
08:00 +30°C° 0 mm 2 mps 729 mmHg 25%
09:00 +33°C° 0 mm 3 mps 729 mmHg 22%
10:00 +35°C° 0 mm 3 mps 729 mmHg 19%
11:00 +38°C° 0 mm 3 mps 729 mmHg 17%
12:00 +39°C° 0 mm 3 mps 729 mmHg 16%
13:00 +40°C° 0 mm 3 mps 729 mmHg 15%
14:00 +42°C° 0 mm 4 mps 728 mmHg 14%
15:00 +42°C° 0 mm 4 mps 728 mmHg 14%
16:00 +42°C° 0 mm 5 mps 728 mmHg 14%
17:00 +42°C° 0 mm 6 mps 728 mmHg 14%
18:00 +40°C° 0 mm 5 mps 728 mmHg 17%
19:00 +37°C° 0 mm 4 mps 728 mmHg 19%
20:00 +34°C° 0 mm 4 mps 728 mmHg 21%
21:00 +33°C° 0 mm 3 mps 728 mmHg 22%
22:00 +31°C° 0 mm 2 mps 728 mmHg 23%
23:00 +30°C° 0 mm 2 mps 728 mmHg 24%

10 August, Monday

Time Temperature Precipitation Wind Pressure Humidity
00:00 +29°C° 0 mm 1 mps 728 mmHg 25%
01:00 +28°C° 0 mm 1 mps 728 mmHg 27%
02:00 +27°C° 0 mm 1 mps 728 mmHg 29%
03:00 +26°C° 0 mm 1 mps 728 mmHg 30%
04:00 +26°C° 0 mm 1 mps 728 mmHg 31%
05:00 +25°C° 0 mm 1 mps 728 mmHg 32%
06:00 +28°C° 0 mm 1 mps 728 mmHg 28%
07:00 +30°C° 0 mm 1 mps 729 mmHg 25%
08:00 +33°C° 0 mm 1 mps 729 mmHg 21%
09:00 +36°C° 0 mm 2 mps 729 mmHg 19%
10:00 +38°C° 0 mm 2 mps 729 mmHg 16%
11:00 +40°C° 0 mm 2 mps 728 mmHg 14%
12:00 +42°C° 0 mm 3 mps 728 mmHg 13%
13:00 +43°C° 0 mm 3 mps 728 mmHg 12%
14:00 +44°C° 0 mm 3 mps 728 mmHg 11%
15:00 +44°C° 0 mm 4 mps 727 mmHg 11%
16:00 +44°C° 0 mm 4 mps 727 mmHg 11%
17:00 +46°C° 0 mm 5 mps 727 mmHg 10%
18:00 +42°C° 0 mm 4 mps 727 mmHg 12%
19:00 +38°C° 0 mm 4 mps 727 mmHg 14%
20:00 +36°C° 0 mm 4 mps 728 mmHg 16%
21:00 +34°C° 0 mm 4 mps 728 mmHg 17%
22:00 +32°C° 0 mm 4 mps 728 mmHg 19%
23:00 +30°C° 0 mm 4 mps 728 mmHg 21%

11 August, Tuesday

Time Temperature Precipitation Wind Pressure Humidity
00:00 +29°C° 0 mm 3 mps 728 mmHg 24%
01:00 +27°C° 0 mm 3 mps 728 mmHg 27%
02:00 +26°C° 0 mm 2 mps 728 mmHg 29%
03:00 +25°C° 0 mm 2 mps 728 mmHg 31%
04:00 +25°C° 0 mm 1 mps 728 mmHg 32%
05:00 +24°C° 0 mm 1 mps 728 mmHg 34%
06:00 +26°C° 0 mm 1 mps 729 mmHg 30%
07:00 +29°C° 0 mm 2 mps 729 mmHg 27%
08:00 +31°C° 0 mm 2 mps 729 mmHg 23%
09:00 +34°C° 0 mm 2 mps 729 mmHg 21%
10:00 +36°C° 0 mm 3 mps 729 mmHg 18%
11:00 +38°C° 0 mm 3 mps 729 mmHg 16%
12:00 +40°C° 0 mm 4 mps 729 mmHg 15%
13:00 +41°C° 0 mm 5 mps 729 mmHg 13%
14:00 +42°C° 0 mm 6 mps 729 mmHg 12%
15:00 +42°C° 0 mm 6 mps 729 mmHg 12%
16:00 +41°C° 0 mm 7 mps 729 mmHg 13%
17:00 +41°C° 0 mm 7 mps 728 mmHg 13%
18:00 +38°C° 0 mm 6 mps 729 mmHg 15%
19:00 +35°C° 0 mm 5 mps 729 mmHg 18%
20:00 +32°C° 0 mm 4 mps 729 mmHg 20%
21:00 +30°C° 0 mm 3 mps 729 mmHg 21%
22:00 +28°C° 0 mm 3 mps 729 mmHg 23%
23:00 +27°C° 0 mm 2 mps 730 mmHg 24%
Show more